,,Stat6,,Stat2,,Stat8,,Stat9,,Stat10,,Wind1,,Wind1,
time,status,PA1M_AVG,status,PR1M_SUM,status,RH1M_AVG,status,SR1M_AVG,status,TA1M_AVG,status,W1dAve1m,status,W1sAve1m,
2004-07-18, 00:00:00,VALID,919.061,VALID,0,VALID,98.1412,VALID,0.0509425,VALID,18.5469,VALID,135,VALID,0.983817,
2004-07-18, 00:01:00,VALID,919.068,VALID,0,VALID,98.1526,VALID,0.0339617,VALID,18.5444,VALID,132,VALID,1.1786,
2004-07-18, 00:02:00,VALID,919.058,VALID,0,VALID,98.1157,VALID,0.0339617,VALID,18.5278,VALID,126,VALID,0.892078,
2004-07-18, 00:03:00,VALID,919.059,VALID,0,VALID,98.0483,VALID,0,VALID,18.5215,VALID,137,VALID,0.974516,
2004-07-18, 00:04:00,VALID,919.048,VALID,0,VALID,98.0611,VALID,0.0509425,VALID,18.5347,VALID,126,VALID,1.11555,
2004-07-18, 00:05:00,VALID,919.051,VALID,0,VALID,97.9987,VALID,0.0169808,VALID,18.5342,VALID,139,VALID,1.01749,
2004-07-18, 00:06:00,VALID,919.044,VALID,0,VALID,97.9403,VALID,0,VALID,18.5377,VALID,143,VALID,1.30885,
2004-07-18, 00:07:00,VALID,919.045,VALID,0,VALID,97.8665,VALID,-0.0509425,VALID,18.5515,VALID,144,VALID,1.09444,
2004-07-18, 00:08:00,VALID,919.027,VALID,0,VALID,97.7851,VALID,-0.0679233,VALID,18.555,VALID,143,VALID,1.60191,
2004-07-18, 00:09:00,VALID,919.011,VALID,0,VALID,97.6185,VALID,-0.101885,VALID,18.5748,VALID,137,VALID,1.40873,
2004-07-18, 00:10:00,VALID,918.997,VALID,0,VALID,97.5181,VALID,-0.101885,VALID,18.5744,VALID,142,VALID,1.47559,
2004-07-18, 00:11:00,VALID,918.989,VALID,0,VALID,97.4748,VALID,-0.0509425,VALID,18.5684,VALID,144,VALID,1.54403,
2004-07-18, 00:12:00,VALID,918.975,VALID,0,VALID,97.4278,VALID,-0.0339617,VALID,18.5476,VALID,153,VALID,1.61119,
2004-07-18, 00:13:00,VALID,918.962,VALID,0,VALID,97.3884,VALID,-0.0679233,VALID,18.5647,VALID,142,VALID,1.65391,
2004-07-18, 00:14:00,VALID,918.956,VALID,0,VALID,97.3528,VALID,-0.0679233,VALID,18.5647,VALID,143,VALID,1.51777,
2004-07-18, 00:15:00,VALID,918.933,VALID,0,VALID,97.3146,VALID,-0.101885,VALID,18.5614,VALID,148,VALID,1.4497,
2004-07-18, 00:16:00,VALID,918.923,VALID,0,VALID,97.307,VALID,-0.0849042,VALID,18.5753,VALID,151,VALID,1.33727,
2004-07-18, 00:17:00,VALID,918.916,VALID,0,VALID,97.232,VALID,-0.101885,VALID,18.5584,VALID,144,VALID,1.07645,
2004-07-18, 00:18:00,VALID,918.912,VALID,0,VALID,97.1951,VALID,-0.101885,VALID,18.5714,VALID,144,VALID,0.951705,
2004-07-18, 00:19:00,VALID,918.894,VALID,0,VALID,97.1862,VALID,-0.0849042,VALID,18.5619,VALID,145,VALID,1.55316,
2004-07-18, 00:20:00,VALID,918.883,VALID,0,VALID,97.1302,VALID,-0.101885,VALID,18.5614,VALID,140,VALID,1.3916,
2004-07-18, 00:21:00,VALID,918.846,VALID,0,VALID,97.059,VALID,-0.0849042,VALID,18.5744,VALID,129,VALID,1.30433,
2004-07-18, 00:22:00,VALID,918.839,VALID,0,VALID,97.0044,VALID,-0.101885,VALID,18.558,VALID,123,VALID,1.24073,
2004-07-18, 00:23:00,VALID,918.832,VALID,0,VALID,96.9535,VALID,-0.101885,VALID,18.5651,VALID,138,VALID,1.47526,
2004-07-18, 00:24:00,VALID,918.826,VALID,0,VALID,96.9459,VALID,-0.0849042,VALID,18.5718,VALID,145,VALID,1.05059,
2004-07-18, 00:25:00,VALID,918.816,VALID,0,VALID,97.0107,VALID,-0.0679233,VALID,18.5612,VALID,147,VALID,1.34335,
2004-07-18, 00:26:00,VALID,918.818,VALID,0,VALID,97.073,VALID,-0.0339617,VALID,18.5515,VALID,138,VALID,1.09524,
2004-07-18, 00:27:00,VALID,918.787,VALID,0,VALID,97.1328,VALID,-0.0509425,VALID,18.5386,VALID,137,VALID,1.33677,
2004-07-18, 00:28:00,VALID,918.781,VALID,0,VALID,97.2574,VALID,-0.0849042,VALID,18.5165,VALID,153,VALID,0.976199,
2004-07-18, 00:29:00,VALID,918.768,VALID,0,VALID,97.3261,VALID,-0.101885,VALID,18.4874,VALID,143,VALID,1.26074,
2004-07-18, 00:30:00,VALID,918.769,VALID,0,VALID,97.4024,VALID,-0.0849042,VALID,18.4812,VALID,146,VALID,1.3343,
2004-07-18, 00:31:00,VALID,918.755,VALID,0,VALID,97.466,VALID,-0.0679233,VALID,18.4581,VALID,144,VALID,1.45156,
2004-07-18, 00:32:00,VALID,918.749,VALID,0,VALID,97.5206,VALID,-0.101885,VALID,18.442,VALID,151,VALID,1.35379,
2004-07-18, 00:33:00,VALID,918.74,VALID,0,VALID,97.5626,VALID,-0.0849042,VALID,18.4157,VALID,148,VALID,1.10156,
2004-07-18, 00:34:00,VALID,918.729,VALID,0,VALID,97.5829,VALID,-0.0509425,VALID,18.4194,VALID,151,VALID,1.06288,
2004-07-18, 00:35:00,VALID,918.701,VALID,0,VALID,97.5244,VALID,-0.0679233,VALID,18.3965,VALID,144,VALID,0.977515,
2004-07-18, 00:36:00,VALID,918.678,VALID,0,VALID,97.4685,VALID,-0.0509425,VALID,18.4,VALID,140,VALID,0.589844,
2004-07-18, 00:37:00,VALID,918.665,VALID,0,VALID,97.3808,VALID,-0.0679233,VALID,18.3836,VALID,142,VALID,0.406808,
2004-07-18, 00:38:00,VALID,918.634,VALID,0,VALID,97.2561,VALID,-0.0849042,VALID,18.364,VALID,114,VALID,0.751736,
2004-07-18, 00:39:00,VALID,918.612,VALID,0,VALID,97.073,VALID,-0.101885,VALID,18.3576,VALID,115,VALID,1.05022,
2004-07-18, 00:40:00,VALID,918.596,VALID,0,VALID,96.9929,VALID,-0.101885,VALID,18.3746,VALID,131,VALID,0.928013,
2004-07-18, 00:41:00,VALID,918.588,VALID,0,VALID,96.942,VALID,-0.0849042,VALID,18.3776,VALID,173,VALID,1.00286,
2004-07-18, 00:42:00,VALID,918.587,VALID,0,VALID,96.942,VALID,-0.0849042,VALID,18.3931,VALID,141,VALID,0.537729,
2004-07-18, 00:43:00,VALID,918.578,VALID,0,VALID,96.9446,VALID,-0.0849042,VALID,18.3963,VALID,179,VALID,0.841493,
2004-07-18, 00:44:00,VALID,918.577,VALID,0,VALID,96.9853,VALID,-0.0509425,VALID,18.4069,VALID,143,VALID,0.811651,
2004-07-18, 00:45:00,VALID,918.577,VALID,0,VALID,97.0768,VALID,-0.0849042,VALID,18.3905,VALID,153,VALID,1.56232,
2004-07-18, 00:46:00,VALID,918.57,VALID,0,VALID,97.0896,VALID,-0.0679233,VALID,18.3709,VALID,162,VALID,1.24201,
2004-07-18, 00:47:00,VALID,918.593,VALID,0,VALID,97.1201,VALID,-0.0509425,VALID,18.3481,VALID,157,VALID,0.959549,
2004-07-18, 00:48:00,VALID,918.605,VALID,0,VALID,97.1112,VALID,-0.0849042,VALID,18.3414,VALID,171,VALID,1.00019,
2004-07-18, 00:49:00,VALID,918.597,VALID,0,VALID,96.9993,VALID,-0.0849042,VALID,18.3387,VALID,162,VALID,0.84304,
2004-07-18, 00:50:00,VALID,918.581,VALID,0,VALID,96.9598,VALID,-0.0679233,VALID,18.325,VALID,155,VALID,0.864347,
2004-07-18, 00:51:00,VALID,918.544,VALID,0,VALID,96.9408,VALID,-0.0679233,VALID,18.3253,VALID,156,VALID,1.05879,
2004-07-18, 00:52:00,VALID,918.539,VALID,0,VALID,96.9242,VALID,-0.0849042,VALID,18.3121,VALID,149,VALID,0.688045,
2004-07-18, 00:53:00,VALID,918.52,VALID,0,VALID,96.8912,VALID,-0.0509425,VALID,18.3024,VALID,157,VALID,0.813408,
2004-07-18, 00:54:00,VALID,918.506,VALID,0,VALID,96.9014,VALID,-0.101885,VALID,18.3167,VALID,170,VALID,0.896839,
2004-07-18, 00:55:00,VALID,918.515,VALID,0,VALID,96.8365,VALID,-0.0679233,VALID,18.3004,VALID,150,VALID,0.554324,
2004-07-18, 00:56:00,VALID,918.483,VALID,0,VALID,96.7335,VALID,-0.0679233,VALID,18.2875,VALID,154,VALID,1.00312,
2004-07-18, 00:57:00,VALID,918.456,VALID,0,VALID,96.6572,VALID,-0.0679233,VALID,18.2872,VALID,156,VALID,0.585537,
2004-07-18, 00:58:00,VALID,918.444,VALID,0,VALID,96.6598,VALID,-0.101885,VALID,18.2974,VALID,159,VALID,0.349516,
2004-07-18, 00:59:00,VALID,918.426,VALID,0,VALID,96.6191,VALID,-0.101885,VALID,18.2835,VALID,177,VALID,0.910156,
2004-07-18, 01:00:00,VALID,918.428,VALID,0,VALID,96.5936,VALID,-0.101885,VALID,18.2934,VALID,183,VALID,0.296181,
2004-07-18, 01:01:00,VALID,918.436,VALID,0,VALID,96.6458,VALID,-0.0679233,VALID,18.2801,VALID,199,VALID,0.646984,
2004-07-18, 01:02:00,VALID,918.433,VALID,0,VALID,96.6636,VALID,-0.0849042,VALID,18.2872,VALID,188,VALID,0.221554,
2004-07-18, 01:03:00,VALID,918.421,VALID,0,VALID,96.6458,VALID,-0.0849042,VALID,18.2743,VALID,188,VALID,0.186198,
2004-07-18, 01:04:00,VALID,918.406,VALID,0,VALID,96.6877,VALID,-0.0679233,VALID,18.2612,VALID,188,VALID,0.323661,
2004-07-18, 01:05:00,VALID,918.383,VALID,0,VALID,96.7106,VALID,-0.101885,VALID,18.2448,VALID,188,VALID,0.204327,
2004-07-18, 01:06:00,VALID,918.367,VALID,0,VALID,96.7767,VALID,-0.0849042,VALID,18.2487,VALID,117,VALID,0.655664,
2004-07-18, 01:07:00,VALID,918.326,VALID,0,VALID,96.8098,VALID,-0.0849042,VALID,18.2194,VALID,96,VALID,0.621701,
2004-07-18, 01:08:00,VALID,918.302,VALID,0,VALID,96.8403,VALID,-0.0849042,VALID,18.2067,VALID,147,VALID,0.776278,
2004-07-18, 01:09:00,VALID,918.271,VALID,0,VALID,96.8925,VALID,-0.101885,VALID,18.1904,VALID,162,VALID,0.823103,
2004-07-18, 01:10:00,VALID,918.247,VALID,0,VALID,96.839,VALID,-0.0509425,VALID,18.1996,VALID,145,VALID,0.886628,
2004-07-18, 01:11:00,VALID,918.235,VALID,0,VALID,96.75,VALID,-0.101885,VALID,18.2291,VALID,145,VALID,0.636979,
2004-07-18, 01:12:00,VALID,918.211,VALID,0,VALID,96.7284,VALID,-0.0849042,VALID,18.2226,VALID,164,VALID,0.777174,
2004-07-18, 01:13:00,VALID,918.179,VALID,0,VALID,96.7335,VALID,-0.101885,VALID,18.2323,VALID,146,VALID,1.19404,
2004-07-18, 01:14:00,VALID,918.159,VALID,0,VALID,96.6941,VALID,-0.101885,VALID,18.2388,VALID,150,VALID,0.942894,
2004-07-18, 01:15:00,VALID,918.137,VALID,0,VALID,96.6178,VALID,-0.0849042,VALID,18.2321,VALID,126,VALID,0.773047,
2004-07-18, 01:16:00,VALID,918.138,VALID,0,VALID,96.6267,VALID,-0.0849042,VALID,18.2263,VALID,127,VALID,1.02877,
2004-07-18, 01:17:00,VALID,918.146,VALID,0,VALID,96.6063,VALID,-0.101885,VALID,18.203,VALID,129,VALID,0.666548,
2004-07-18, 01:18:00,VALID,918.135,VALID,0,VALID,96.5822,VALID,-0.101885,VALID,18.1964,VALID,130,VALID,0.761628,
2004-07-18, 01:19:00,VALID,918.117,VALID,0,VALID,96.5059,VALID,-0.101885,VALID,18.1839,VALID,93,VALID,0.976563,
2004-07-18, 01:20:00,VALID,918.11,VALID,0,VALID,96.4932,VALID,-0.101885,VALID,18.1514,VALID,54,VALID,0.909412,
2004-07-18, 01:21:00,VALID,918.107,VALID,0,VALID,96.5033,VALID,-0.0849042,VALID,18.1124,VALID,51,VALID,1.0456,
2004-07-18, 01:22:00,VALID,918.089,VALID,0,VALID,96.6063,VALID,-0.0339617,VALID,18.0734,VALID,48,VALID,1.00488,
2004-07-18, 01:23:00,VALID,918.058,VALID,0,VALID,96.7589,VALID,0.0169808,VALID,18.0405,VALID,50,VALID,1.10379,
2004-07-18, 01:24:00,VALID,918.051,VALID,0,VALID,96.942,VALID,0,VALID,18.0213,VALID,61,VALID,1.12691,
2004-07-18, 01:25:00,VALID,918.03,VALID,0,VALID,96.9357,VALID,-0.0169808,VALID,18.0472,VALID,60,VALID,0.886083,
2004-07-18, 01:26:00,VALID,918.009,VALID,0,VALID,96.8123,VALID,0,VALID,18.0543,VALID,71,VALID,0.907652,
2004-07-18, 01:27:00,VALID,917.998,VALID,0,VALID,96.7933,VALID,0.0169808,VALID,18.0571,VALID,65,VALID,0.621185,
2004-07-18, 01:28:00,VALID,917.988,VALID,0,VALID,96.7577,VALID,0,VALID,18.0439,VALID,87,VALID,0.581143,
2004-07-18, 01:29:00,VALID,917.964,VALID,0,VALID,96.7882,VALID,-0.0339617,VALID,18.0541,VALID,118,VALID,1.08403,
2004-07-18, 01:30:00,VALID,917.939,VALID,0,VALID,96.6572,VALID,-0.0169808,VALID,18.0829,VALID,110,VALID,1.01314,
2004-07-18, 01:31:00,VALID,917.911,VALID,0,VALID,96.5046,VALID,0,VALID,18.099,VALID,107,VALID,1.31133,
2004-07-18, 01:32:00,VALID,917.886,VALID,0,VALID,96.3635,VALID,-0.0169808,VALID,18.1251,VALID,123,VALID,1.17624,
2004-07-18, 01:33:00,VALID,917.864,VALID,0,VALID,96.3279,VALID,0.0169808,VALID,18.1249,VALID,125,VALID,1.30602,
2004-07-18, 01:34:00,VALID,917.847,VALID,0,VALID,96.1956,VALID,0.0169808,VALID,18.1636,VALID,131,VALID,1.58289,
2004-07-18, 01:35:00,VALID,917.834,VALID,0,VALID,96.0405,VALID,0.0169808,VALID,18.1929,VALID,134,VALID,1.36094,
2004-07-18, 01:36:00,VALID,917.822,VALID,0,VALID,95.8853,VALID,0.0339617,VALID,18.2084,VALID,124,VALID,1.39634,
2004-07-18, 01:37:00,VALID,917.81,VALID,0,VALID,95.7734,VALID,-0.0169808,VALID,18.2217,VALID,124,VALID,1.21413,
2004-07-18, 01:38:00,VALID,917.777,VALID,0,VALID,95.7556,VALID,-0.0509425,VALID,18.2291,VALID,137,VALID,0.830929,
2004-07-18, 01:39:00,VALID,917.748,VALID,0,VALID,95.7633,VALID,-0.0509425,VALID,18.2323,VALID,124,VALID,0.979959,
2004-07-18, 01:40:00,VALID,917.716,VALID,0,VALID,95.7277,VALID,-0.0679233,VALID,18.2224,VALID,128,VALID,0.877907,
2004-07-18, 01:41:00,VALID,917.705,VALID,0,VALID,95.7518,VALID,-0.0509425,VALID,18.2162,VALID,124,VALID,0.463601,
2004-07-18, 01:42:00,VALID,917.687,VALID,0,VALID,95.7836,VALID,-0.0169808,VALID,18.2166,VALID,128,VALID,0.6163,
2004-07-18, 01:43:00,VALID,917.674,VALID,0,VALID,95.748,VALID,-0.0849042,VALID,18.2007,VALID,103,VALID,0.233994,
2004-07-18, 01:44:00,VALID,917.647,VALID,0,VALID,95.7722,VALID,-0.0849042,VALID,18.1874,VALID,103,VALID,0.0608259,
2004-07-18, 01:45:00,VALID,917.631,VALID,0,VALID,95.7976,VALID,-0.0849042,VALID,18.1648,VALID,102,VALID,0.469638,
2004-07-18, 01:46:00,VALID,917.621,VALID,0,VALID,95.7747,VALID,-0.0509425,VALID,18.1618,VALID,63,VALID,0.758614,
2004-07-18, 01:47:00,VALID,917.62,VALID,0,VALID,95.7188,VALID,-0.101885,VALID,18.1327,VALID,58,VALID,0.82758,
2004-07-18, 01:48:00,VALID,917.619,VALID,0,VALID,95.57,VALID,-0.101885,VALID,18.1101,VALID,74,VALID,0.895579,
2004-07-18, 01:49:00,VALID,917.615,VALID,0,VALID,95.3856,VALID,-0.0509425,VALID,18.097,VALID,96,VALID,1.0536,
2004-07-18, 01:50:00,VALID,917.587,VALID,0,VALID,95.2724,VALID,-0.0679233,VALID,18.1094,VALID,126,VALID,1.06101,
2004-07-18, 01:51:00,VALID,917.565,VALID,0,VALID,95.1771,VALID,-0.0849042,VALID,18.1618,VALID,134,VALID,1.3212,
2004-07-18, 01:52:00,VALID,917.543,VALID,0,VALID,94.8579,VALID,-0.0509425,VALID,18.174,VALID,134,VALID,1.19313,
2004-07-18, 01:53:00,VALID,917.535,VALID,0,VALID,94.7562,VALID,0.0339617,VALID,18.2155,VALID,133,VALID,1.00438,
2004-07-18, 01:54:00,VALID,917.521,VALID,0,VALID,94.615,VALID,0,VALID,18.2118,VALID,134,VALID,0.854759,
2004-07-18, 01:55:00,VALID,917.509,VALID,0,VALID,94.4332,VALID,0.0169808,VALID,18.2148,VALID,146,VALID,0.708807,
2004-07-18, 01:56:00,VALID,917.498,VALID,0,VALID,94.264,VALID,0.0339617,VALID,18.2282,VALID,145,VALID,0.973656,
2004-07-18, 01:57:00,VALID,917.498,VALID,0,VALID,94.1076,VALID,0.0169808,VALID,18.2379,VALID,138,VALID,0.742569,
2004-07-18, 01:58:00,VALID,917.5,VALID,0,VALID,93.9665,VALID,0.0509425,VALID,18.2506,VALID,138,VALID,0.773074,
2004-07-18, 01:59:00,VALID,917.495,VALID,0,VALID,93.9182,VALID,0.0169808,VALID,18.2773,VALID,130,VALID,0.454055,
2004-07-18, 02:00:00,VALID,917.507,VALID,0,VALID,93.8876,VALID,0,VALID,18.2605,VALID,124,VALID,0.352325,
2004-07-18, 02:01:00,VALID,917.497,VALID,0,VALID,93.9334,VALID,0.0169808,VALID,18.2637,VALID,105,VALID,0.33817,
2004-07-18, 02:02:00,VALID,917.5,VALID,0,VALID,94.0606,VALID,0.0339617,VALID,18.2515,VALID,105,VALID,0.090298,
2004-07-18, 02:03:00,VALID,917.489,VALID,0,VALID,94.2145,VALID,0.0679233,VALID,18.2051,VALID,104,VALID,0.194222,
2004-07-18, 02:04:00,VALID,917.496,VALID,0,VALID,94.3963,VALID,0.0339617,VALID,18.1599,VALID,54,VALID,0.492708,
2004-07-18, 02:05:00,VALID,917.475,VALID,0,VALID,94.6964,VALID,0,VALID,18.0926,VALID,38,VALID,0.622275,
2004-07-18, 02:06:00,VALID,917.467,VALID,0,VALID,94.999,VALID,0.0339617,VALID,18.0541,VALID,38,VALID,0.598028,
2004-07-18, 02:07:00,VALID,917.445,VALID,0,VALID,95.2038,VALID,0.0339617,VALID,18.0057,VALID,38,VALID,0.378018,
2004-07-18, 02:08:00,VALID,917.441,VALID,0,VALID,95.3131,VALID,0.0169808,VALID,17.9794,VALID,38,VALID,0.386052,
2004-07-18, 02:09:00,VALID,917.441,VALID,0,VALID,95.4454,VALID,0.0169808,VALID,17.9632,VALID,38,VALID,0.207589,
2004-07-18, 02:10:00,VALID,917.448,VALID,0,VALID,95.4861,VALID,0.0509425,VALID,17.9632,VALID,38,VALID,0.106771,
2004-07-18, 02:11:00,VALID,917.435,VALID,0,VALID,95.5102,VALID,0.0169808,VALID,17.9568,VALID,38,VALID,0.330305,
2004-07-18, 02:12:00,VALID,917.421,VALID,0,VALID,95.3703,VALID,0.0679233,VALID,17.9891,VALID,38,VALID,0.128162,
2004-07-18, 02:13:00,VALID,917.422,VALID,0,VALID,95.1326,VALID,0.0509425,VALID,18.0243,VALID,38,VALID,0,
2004-07-18, 02:14:00,VALID,917.425,VALID,0,VALID,95.055,VALID,0.0509425,VALID,18.0504,VALID,38,VALID,0.188643,
2004-07-18, 02:15:00,VALID,917.445,VALID,0,VALID,95.0702,VALID,0.0339617,VALID,18.0442,VALID,65,VALID,0.353379,
2004-07-18, 02:16:00,VALID,917.442,VALID,0,VALID,95.0474,VALID,0.0339617,VALID,18.0599,VALID,118,VALID,0.447545,
2004-07-18, 02:17:00,VALID,917.446,VALID,0,VALID,94.849,VALID,0.0339617,VALID,18.0795,VALID,119,VALID,0.402435,
2004-07-18, 02:18:00,VALID,917.44,VALID,0,VALID,94.7714,VALID,0.0169808,VALID,18.1055,VALID,134,VALID,0.678524,
2004-07-18, 02:19:00,VALID,917.455,VALID,0,VALID,94.6684,VALID,0,VALID,18.1117,VALID,140,VALID,0.758168,
2004-07-18, 02:20:00,VALID,917.46,VALID,0,VALID,94.5591,VALID,0,VALID,18.1348,VALID,150,VALID,0.520898,
2004-07-18, 02:21:00,VALID,917.466,VALID,0,VALID,94.4599,VALID,0.0339617,VALID,18.1509,VALID,149,VALID,0.544085,
2004-07-18, 02:22:00,VALID,917.481,VALID,0,VALID,94.3747,VALID,0.0169808,VALID,18.1604,VALID,143,VALID,0.785714,
2004-07-18, 02:23:00,VALID,917.48,VALID,0,VALID,94.2704,VALID,0.0339617,VALID,18.1701,VALID,111,VALID,0.583212,
2004-07-18, 02:24:00,VALID,917.477,VALID,0,VALID,94.2437,VALID,0.0509425,VALID,18.1793,VALID,129,VALID,0.563834,
2004-07-18, 02:25:00,VALID,917.485,VALID,0,VALID,94.2208,VALID,0.0509425,VALID,18.1696,VALID,129,VALID,0.438045,
2004-07-18, 02:26:00,VALID,917.477,VALID,0,VALID,94.1725,VALID,0.0169808,VALID,18.1733,VALID,129,VALID,0.391183,
2004-07-18, 02:27:00,VALID,917.458,VALID,0,VALID,94.1534,VALID,0.0679233,VALID,18.1795,VALID,128,VALID,0.565625,
2004-07-18, 02:28:00,VALID,917.444,VALID,0,VALID,94.1585,VALID,0.0339617,VALID,18.1899,VALID,128,VALID,0.452398,
2004-07-18, 02:29:00,VALID,917.44,VALID,0,VALID,94.1941,VALID,0,VALID,18.1892,VALID,128,VALID,0.537972,
2004-07-18, 02:30:00,VALID,917.423,VALID,0,VALID,94.2488,VALID,0.0169808,VALID,18.1927,VALID,136,VALID,0.631541,
2004-07-18, 02:31:00,VALID,917.406,VALID,0,VALID,94.2882,VALID,0.0169808,VALID,18.1828,VALID,146,VALID,0.858865,
2004-07-18, 02:32:00,VALID,917.397,VALID,0,VALID,94.4039,VALID,0.0509425,VALID,18.1733,VALID,158,VALID,1.0651,
2004-07-18, 02:33:00,VALID,917.375,VALID,0,VALID,94.5044,VALID,0.0509425,VALID,18.1403,VALID,149,VALID,1.19635,
2004-07-18, 02:34:00,VALID,917.349,VALID,0,VALID,94.4967,VALID,0.0339617,VALID,18.1408,VALID,144,VALID,1.17097,
2004-07-18, 02:35:00,VALID,917.336,VALID,0,VALID,94.4294,VALID,0.0849042,VALID,18.147,VALID,129,VALID,0.738567,
2004-07-18, 02:36:00,VALID,917.329,VALID,0,VALID,94.3963,VALID,0.0509425,VALID,18.1569,VALID,139,VALID,0.9375,
2004-07-18, 02:37:00,VALID,917.323,VALID,0,VALID,94.451,VALID,-0.0169808,VALID,18.1546,VALID,136,VALID,1.01687,
2004-07-18, 02:38:00,VALID,917.309,VALID,0,VALID,94.4306,VALID,-0.0679233,VALID,18.1551,VALID,132,VALID,1.03848,
2004-07-18, 02:39:00,VALID,917.299,VALID,0,VALID,94.4357,VALID,-0.0679233,VALID,18.1555,VALID,139,VALID,1.05664,
2004-07-18, 02:40:00,VALID,917.296,VALID,0,VALID,94.381,VALID,-0.0849042,VALID,18.1553,VALID,139,VALID,1.10249,
2004-07-18, 02:41:00,VALID,917.299,VALID,0,VALID,94.3836,VALID,-0.0509425,VALID,18.171,VALID,146,VALID,1.18041,
2004-07-18, 02:42:00,VALID,917.283,VALID,0,VALID,94.348,VALID,-0.0849042,VALID,18.171,VALID,142,VALID,1.02198,
2004-07-18, 02:43:00,VALID,917.266,VALID,0,VALID,94.3327,VALID,-0.0509425,VALID,18.1906,VALID,148,VALID,0.893415,
2004-07-18, 02:44:00,VALID,917.263,VALID,0,VALID,94.292,VALID,-0.0339617,VALID,18.1908,VALID,146,VALID,0.986471,
2004-07-18, 02:45:00,VALID,917.241,VALID,0,VALID,94.2234,VALID,-0.0849042,VALID,18.1901,VALID,149,VALID,0.902043,
2004-07-18, 02:46:00,VALID,917.235,VALID,0,VALID,94.2145,VALID,-0.101885,VALID,18.2003,VALID,150,VALID,0.759722,
2004-07-18, 02:47:00,VALID,917.215,VALID,0,VALID,94.1928,VALID,-0.0509425,VALID,18.207,VALID,134,VALID,0.491044,
2004-07-18, 02:48:00,VALID,917.208,VALID,0,VALID,94.2399,VALID,-0.0849042,VALID,18.207,VALID,140,VALID,0.78032,
2004-07-18, 02:49:00,VALID,917.198,VALID,0,VALID,94.2997,VALID,-0.0679233,VALID,18.1973,VALID,168,VALID,0.548692,
2004-07-18, 02:50:00,VALID,917.209,VALID,0,VALID,94.2793,VALID,-0.0679233,VALID,18.1839,VALID,150,VALID,0.721227,
2004-07-18, 02:51:00,VALID,917.204,VALID,0,VALID,94.3264,VALID,-0.0339617,VALID,18.197,VALID,134,VALID,0.451982,
2004-07-18, 02:52:00,VALID,917.19,VALID,0,VALID,94.3607,VALID,0.0169808,VALID,18.1834,VALID,137,VALID,0.812891,
2004-07-18, 02:53:00,VALID,917.188,VALID,0,VALID,94.3912,VALID,0.0509425,VALID,18.1765,VALID,129,VALID,0.83631,
2004-07-18, 02:54:00,VALID,917.179,VALID,0,VALID,94.395,VALID,0.0509425,VALID,18.1798,VALID,140,VALID,0.924055,
2004-07-18, 02:55:00,VALID,917.17,VALID,0,VALID,94.4472,VALID,0.0509425,VALID,18.1666,VALID,129,VALID,0.412064,
2004-07-18, 02:56:00,VALID,917.166,VALID,0,VALID,94.4739,VALID,0.0679233,VALID,18.1602,VALID,138,VALID,0.845833,
2004-07-18, 02:57:00,VALID,917.162,VALID,0,VALID,94.5552,VALID,0.0339617,VALID,18.1569,VALID,133,VALID,0.679492,
2004-07-18, 02:58:00,VALID,917.152,VALID,0,VALID,94.6366,VALID,0.0339617,VALID,18.1442,VALID,123,VALID,0.60773,
2004-07-18, 02:59:00,VALID,917.154,VALID,0,VALID,94.7727,VALID,0.0679233,VALID,18.1216,VALID,125,VALID,0.550145,
2004-07-18, 03:00:00,VALID,917.171,VALID,0,VALID,95.0626,VALID,0.0509425,VALID,18.0954,VALID,115,VALID,0.727834,
2004-07-18, 03:01:00,VALID,917.165,VALID,0,VALID,95.3602,VALID,0.0679233,VALID,18.0629,VALID,114,VALID,0.694531,
2004-07-18, 03:02:00,VALID,917.156,VALID,0,VALID,95.4988,VALID,0.0679233,VALID,18.0373,VALID,118,VALID,0.684896,
2004-07-18, 03:03:00,VALID,917.141,VALID,0,VALID,95.6539,VALID,0.0509425,VALID,18.0216,VALID,127,VALID,0.758194,
2004-07-18, 03:04:00,VALID,917.132,VALID,0,VALID,95.7633,VALID,0.0849042,VALID,17.9953,VALID,119,VALID,0.828852,
2004-07-18, 03:05:00,VALID,917.124,VALID,0,VALID,95.8574,VALID,0.0339617,VALID,17.9796,VALID,121,VALID,1.05682,
2004-07-18, 03:06:00,VALID,917.115,VALID,0,VALID,95.9222,VALID,0.0339617,VALID,17.9637,VALID,122,VALID,0.929155,
2004-07-18, 03:07:00,VALID,917.092,VALID,0,VALID,96.0328,VALID,0.0339617,VALID,17.9349,VALID,136,VALID,0.651972,
2004-07-18, 03:08:00,VALID,917.09,VALID,0,VALID,96.1905,VALID,-0.0679233,VALID,17.9323,VALID,131,VALID,0.790128,
2004-07-18, 03:09:00,VALID,917.08,VALID,0,VALID,96.3596,VALID,-0.0339617,VALID,17.9231,VALID,136,VALID,0.728468,
2004-07-18, 03:10:00,VALID,917.082,VALID,0,VALID,96.5593,VALID,-0.0679233,VALID,17.9231,VALID,129,VALID,1.02572,
2004-07-18, 03:11:00,VALID,917.078,VALID,0,VALID,96.6114,VALID,-0.0509425,VALID,17.9099,VALID,127,VALID,0.813772,
2004-07-18, 03:12:00,VALID,917.073,VALID,0,VALID,96.5567,VALID,-0.0849042,VALID,17.8839,VALID,120,VALID,0.975472,
2004-07-18, 03:13:00,VALID,917.052,VALID,0,VALID,96.4792,VALID,-0.0849042,VALID,17.871,VALID,122,VALID,0.777344,
2004-07-18, 03:14:00,VALID,917.048,VALID,0,VALID,96.4003,VALID,-0.0679233,VALID,17.8744,VALID,122,VALID,1.02813,
2004-07-18, 03:15:00,VALID,917.038,VALID,0,VALID,96.2808,VALID,-0.0339617,VALID,17.8837,VALID,112,VALID,0.711124,
2004-07-18, 03:16:00,VALID,917.023,VALID,0,VALID,96.2338,VALID,-0.0509425,VALID,17.8774,VALID,122,VALID,1.09003,
2004-07-18, 03:17:00,VALID,917.003,VALID,0,VALID,96.0926,VALID,-0.0169808,VALID,17.8837,VALID,127,VALID,1.64353,
2004-07-18, 03:18:00,VALID,916.998,VALID,0,VALID,95.8968,VALID,-0.0169808,VALID,17.9263,VALID,128,VALID,0.958519,
2004-07-18, 03:19:00,VALID,917.003,VALID,0,VALID,95.7836,VALID,-0.0339617,VALID,17.9358,VALID,131,VALID,1.53125,
2004-07-18, 03:20:00,VALID,917.007,VALID,0,VALID,95.7124,VALID,-0.0849042,VALID,17.9549,VALID,125,VALID,1.22324,
2004-07-18, 03:21:00,VALID,917.004,VALID,0,VALID,95.6997,VALID,-0.0679233,VALID,17.9581,VALID,121,VALID,0.808321,
2004-07-18, 03:22:00,VALID,917.004,VALID,0,VALID,95.7836,VALID,-0.0849042,VALID,17.9586,VALID,121,VALID,0.973772,
2004-07-18, 03:23:00,VALID,917.014,VALID,0,VALID,95.8688,VALID,-0.101885,VALID,17.9494,VALID,129,VALID,1.00428,
2004-07-18, 03:24:00,VALID,916.994,VALID,0,VALID,95.954,VALID,-0.0509425,VALID,17.9293,VALID,130,VALID,0.939303,
2004-07-18, 03:25:00,VALID,916.993,VALID,0,VALID,96.0697,VALID,-0.0339617,VALID,17.9097,VALID,134,VALID,1.06287,
2004-07-18, 03:26:00,VALID,916.972,VALID,0,VALID,96.221,VALID,-0.0849042,VALID,17.8998,VALID,123,VALID,1.1195,
2004-07-18, 03:27:00,VALID,916.963,VALID,0,VALID,96.319,VALID,-0.0679233,VALID,17.9069,VALID,119,VALID,0.922991,
2004-07-18, 03:28:00,VALID,916.952,VALID,0,VALID,96.4436,VALID,-0.0679233,VALID,17.8712,VALID,121,VALID,1.18136,
2004-07-18, 03:29:00,VALID,916.945,VALID,0,VALID,96.6076,VALID,-0.0679233,VALID,17.8749,VALID,133,VALID,1.28411,